Погода в Нюкёбинг-Морсе

Дания     56°47′46″N   8°51′32″E
темп.,
°C
ветер,
м/с
пор.,
м/с
влажн.,
%
обл.,
%
осадки,
мм/ч
давл.,
гПа
погр.,
м
12 августа, пт
пт1223:00+16ссз22855 0.0 102420
02:00+15с11845 0.0 102417
05:00+15юз11820 0.0 102315
08:00+18зсз11700 0.0 102396
11:00+23юз12500 0.0 1023498
14:00+25зюз33465 0.0 1022812
17:00+25зсз43455 0.0 1021758
20:00+21ссз35585 0.0 1021141
13 августа, сб
сб1323:00+17св22700 0.0 102113
02:00+16в00691 0.0 102111
05:00+15з00735 0.0 102111
08:00+18юв11640 0.0 102068
11:00+24зюз01475 0.0 1020452
14:00+26зюз23390 0.0 1019873
17:00+27сз334014 0.0 1018777
20:00+22ссз335757 0.0 101847
14 августа, вс
вс1423:00+17ссв226911 0.0 101815
02:00+17св117017 0.0 101711
05:00+16юв117114 0.0 101712
08:00+19вюв126156 0.0 101660
11:00+26юв234235 0.0 1015535
14:00+29юв24342 0.0 10141905
17:00+29в3433100 0.0 10121482
20:00+25ююв015043 0.0 101140
15 августа, пн
пн1523:00+21юв4657100 0.0 101283
02:00+21юв365994 0.0 1011104
05:00+19вюв4872100 0.0 1010163
08:00+20в4966100 0.0 1009266
11:00+24вюв5856100 0.1 1008627
14:00+23в686399 1.4 1008610
17:00+27в674844 0.4 10061174
20:00+24в596632 0.6 1004352
16 августа, вт
вт1623:00+20вюв41189100 1.5 1004242
02:00+19вюв379191 2.9 1004181
05:00+18юв359690 0.1 1003121
08:00+19ю3489100 0.1 1004185
11:00+22ююз3472100 0.0 1004462
14:00+24з556518 0.6 1004772
17:00+22ссз45706 3.5 1005578
20:00+20з34815 3.5 1006226